sat.trackr.live / text

‹ back to catalog

BEIDOU-2 G5 (C05)

NORAD 38091 · 2012-008A

PAYLOAD ACTIVE UNKNOWN

§ Identity

Operator
Country
PRC
Launch date
2012-02-24
Launch site
XICLF
Launch vehicle
Mass (kg)
RCS (m²)
10.17

Purposes: comms, nav

External: N2YO · Heavens-Above · Gunter

§ Orbital elements

Epoch: 2026-09-20T00:05:40.335648Z

Period
1,436.11 min
Inclination
3.8046°
Eccentricity
0.0006723
Mean motion
1.00270992 rev/d
Perigee alt
35,758.5 km
Apogee alt
35,815.2 km
Semi-major
42,165.0 km
B*
0.0000e+0
RAAN
69.0027°
Arg perigee
239.3530°
Mean anomaly
110.6472°
Rev number
5,331

§ Raw data

BEIDOU-2 G5 (C05)1 38091U 12008A   26263.00393907  .00000054  00000+0  00000+0 0  99992 38091   3.8046  69.0027 0006723 239.3530 110.6472  1.00270992 53314

JSON: /api/v1/satellites/38091 · /tle

For live sub-satellite position, see the globe view (requires WebGL).

§ Visibility from observer

Set your observer location to see the next 7 days of passes ≥ 10°. The values pass through the URL so the page stays shareable.

No JS? Fill the form by hand. The geolocation button needs JavaScript.